Weather History for Pittsburgh, PA

Change the Weather History Date:

Monday, May 6, 2013

  Actual Average Record
Temperature  
Mean Temperature 59 °F 57 °F  
Max Temperature 71 °F 68 °F 89 °F (1949)
Min Temperature 47 °F 46 °F 29 °F (1968)
Degree Days  
Heating Degree Days 6 8  
Month to date heating degree days 17 54  
Since 1 July heating degree days 5411 5530  
Cooling Degree Days 0 1  
Month to date cooling degree days 0 5  
Year to date cooling degree days 17 15  
Growing Degree Days 8 (Base 50)    
Moisture  
Dew Point 43 °F    
Average Humidity 58    
Maximum Humidity 72    
Minimum Humidity 43    
Precipitation  
Precipitation T in 0.12 in 1.72 in (1971)
Month to date precipitation T 0.66  
Year to date precipitation 10.01 11.81  
Snow  
Snow 0.00 in 0.00 in 0.00 in (2002)
Month to date snowfall 0.0 0.0  
Since 1 July snowfall 57.4 41.4  
Snow Depth 0.00 in    
Sea Level Pressure  
Sea Level Pressure 30.06 in    
Wind  
Wind Speed 11 mph (ESE)    
Max Wind Speed 21 mph    
Max Gust Speed 29 mph    
Visibility 10 miles    
Events      
T = Trace of Precipitation, MM = Missing Value Source: NWS Daily Summary

Daily Weather History Graph

Daily Weather History Graph

Search for Another Location

Airport:

Trip Planner

Search our weather history database for the weather conditions in past years. The results will help you decide how hot, cold, wet, or windy it might be!

Date:

Astronomy

May. 06, 2013 Rise Set
Actual Time 6:13 AM EDT 8:21 PM EDT
Civil Twilight 5:43 AM EDT 8:52 PM EDT
Nautical Twilight 5:06 AM EDT 9:29 PM EDT
Astronomical Twilight 4:26 AM EDT 10:09 PM EDT
Moon 4:15 AM EDT (5/6) 5:19 PM EDT (5/6)
Length of Visible Light 15h 08m
Length of Day
14h 08m
Waning Crescent, 11% of the Moon is Illuminated
May 6
Waning Crescent
May 9
New
May 18
First Quarter
May 25
Full
May 31
Last Quarter

Hourly Weather History & Observations

Time (EDT) Temp. Dew Point Humidity Pressure Visibility Wind Dir Wind Speed Gust Speed Precip Events Conditions
12:51 AM 55.0 °F 34.0 °F 45% 30.09 in 10.0 mi ESE 10.4 mph - N/A   Scattered Clouds
1:51 AM 54.0 °F 35.1 °F 49% 30.08 in 10.0 mi ESE 9.2 mph - N/A   Scattered Clouds
2:51 AM 53.1 °F 35.1 °F 50% 30.07 in 10.0 mi ESE 12.7 mph - N/A   Partly Cloudy
3:51 AM 51.1 °F 35.1 °F 54% 30.07 in 10.0 mi ESE 6.9 mph - N/A   Partly Cloudy
4:51 AM 48.9 °F 35.1 °F 59% 30.07 in 10.0 mi East 5.8 mph - N/A   Partly Cloudy
5:51 AM 48.0 °F 36.0 °F 63% 30.09 in 10.0 mi East 4.6 mph - N/A   Scattered Clouds
6:51 AM 48.0 °F 37.0 °F 66% 30.09 in 10.0 mi ENE 6.9 mph - N/A   Mostly Cloudy
7:51 AM 51.1 °F 37.9 °F 61% 30.10 in 10.0 mi ESE 9.2 mph - N/A   Mostly Cloudy
8:51 AM 54.0 °F 37.9 °F 55% 30.10 in 10.0 mi East 10.4 mph - N/A   Mostly Cloudy
9:51 AM 59.0 °F 39.9 °F 49% 30.09 in 10.0 mi ESE 12.7 mph 18.4 mph N/A   Mostly Cloudy
10:51 AM 63.0 °F 43.0 °F 48% 30.09 in 10.0 mi ESE 10.4 mph 18.4 mph N/A   Mostly Cloudy
11:51 AM 64.9 °F 46.0 °F 50% 30.08 in 10.0 mi East 15.0 mph 20.7 mph N/A   Mostly Cloudy
12:51 PM 66.0 °F 46.9 °F 50% 30.07 in 10.0 mi ESE 15.0 mph 26.5 mph N/A   Overcast
1:51 PM 69.1 °F 48.0 °F 47% 30.05 in 10.0 mi ESE 15.0 mph 18.4 mph N/A   Mostly Cloudy
2:51 PM 70.0 °F 48.0 °F 46% 30.04 in 10.0 mi SE 15.0 mph 26.5 mph N/A   Mostly Cloudy
3:51 PM 69.1 °F 48.0 °F 47% 30.02 in 10.0 mi ESE 11.5 mph - N/A   Overcast
4:51 PM 68.0 °F 48.0 °F 49% 30.01 in 10.0 mi ESE 15.0 mph 21.9 mph N/A   Overcast
5:51 PM 68.0 °F 48.0 °F 49% 30.02 in 10.0 mi ESE 17.3 mph 21.9 mph N/A   Overcast
6:51 PM 68.0 °F 48.9 °F 50% 30.03 in 10.0 mi ESE 16.1 mph 23.0 mph N/A   Overcast
7:51 PM 64.9 °F 48.9 °F 56% 30.04 in 10.0 mi ESE 11.5 mph - N/A   Overcast
8:51 PM 64.0 °F 48.9 °F 58% 30.05 in 10.0 mi ESE 11.5 mph - N/A   Overcast
9:51 PM 61.0 °F 51.1 °F 70% 30.06 in 10.0 mi East 9.2 mph - N/A   Overcast
10:51 PM 60.1 °F 52.0 °F 75% 30.06 in 8.0 mi East 8.1 mph - N/A   Overcast
11:51 PM 61.0 °F 51.1 °F 70% 30.04 in 10.0 mi East 8.1 mph - 0.00 in   Overcast